Time,TemperatureF,DewpointF,PressureIn,WindDirection,WindDirectionDegrees,WindSpeedMPH,WindSpeedGustMPH,Humidity,HourlyPrecipIn,Conditions,Clouds,dailyrainin,SolarRadiationWatts/m^2,SoftwareType,DateUTC
2013-05-29 00:01:00,55.0,48.0,-100.00,North,6,8.0,13.0,77,0.00,,,0.00,0.000000,,2013-05-29 06:01:00,
2013-05-29 00:11:00,55.0,48.0,-100.00,North,6,8.0,13.0,77,0.00,,,0.00,0.000000,,2013-05-29 06:11:00,
2013-05-29 00:32:00,54.0,49.0,-100.00,North,358,10.0,15.0,84,0.00,,,0.00,0.000000,,2013-05-29 06:32:00,
2013-05-29 00:42:00,54.0,49.0,-100.00,North,358,10.0,15.0,84,0.00,,,0.00,0.000000,,2013-05-29 06:42:00,
2013-05-29 00:52:00,54.0,49.0,-100.00,North,358,10.0,15.0,84,0.00,,,0.00,0.000000,,2013-05-29 06:52:00,
2013-05-29 01:01:00,54.0,49.0,-100.00,North,358,10.0,15.0,84,0.00,,,0.00,0.000000,,2013-05-29 07:01:00,
2013-05-29 01:11:00,54.0,49.0,-100.00,North,358,10.0,15.0,84,0.00,,,0.00,0.000000,,2013-05-29 07:11:00,
2013-05-29 01:34:00,53.0,48.0,-100.00,NNW,332,8.0,16.0,83,0.00,,,0.00,0.000000,,2013-05-29 07:34:00,
2013-05-29 01:42:00,53.0,48.0,-100.00,NNW,332,8.0,16.0,83,0.00,,,0.00,0.000000,,2013-05-29 07:42:00,
2013-05-29 01:52:00,53.0,48.0,-100.00,NNW,332,8.0,16.0,83,0.00,,,0.00,0.000000,,2013-05-29 07:52:00,
2013-05-29 02:02:00,53.0,48.0,-100.00,NNW,332,8.0,16.0,83,0.00,,,0.00,0.000000,,2013-05-29 08:02:00,
2013-05-29 02:11:00,53.0,48.0,-100.00,NNW,332,8.0,16.0,83,0.00,,,0.00,0.000000,,2013-05-29 08:11:00,
2013-05-29 02:32:00,53.0,48.0,-100.00,NW,326,6.0,8.0,83,0.00,,,0.00,0.000000,,2013-05-29 08:32:00,
2013-05-29 02:42:00,53.0,48.0,-100.00,NW,326,6.0,8.0,83,0.00,,,0.00,0.000000,,2013-05-29 08:42:00,
2013-05-29 02:52:00,53.0,48.0,-100.00,NW,326,6.0,8.0,83,0.00,,,0.00,0.000000,,2013-05-29 08:52:00,
2013-05-29 03:01:00,53.0,48.0,-100.00,NW,326,6.0,8.0,83,0.00,,,0.00,0.000000,,2013-05-29 09:01:00,
2013-05-29 03:11:00,53.0,48.0,-100.00,NW,326,6.0,8.0,83,0.00,,,0.00,0.000000,,2013-05-29 09:11:00,
2013-05-29 03:33:00,54.0,48.0,-100.00,NNW,330,5.0,11.0,79,0.00,,,0.00,0.000000,,2013-05-29 09:33:00,
2013-05-29 03:42:00,54.0,48.0,-100.00,NNW,330,5.0,11.0,79,0.00,,,0.00,0.000000,,2013-05-29 09:42:00,
2013-05-29 03:52:00,54.0,48.0,-100.00,NNW,330,5.0,11.0,79,0.00,,,0.00,0.000000,,2013-05-29 09:52:00,
2013-05-29 04:03:00,54.0,48.0,-100.00,NNW,330,5.0,11.0,79,0.00,,,0.00,0.000000,,2013-05-29 10:03:00,
2013-05-29 04:12:00,54.0,48.0,-100.00,NNW,330,5.0,11.0,79,0.00,,,0.00,0.000000,,2013-05-29 10:12:00,
2013-05-29 04:33:00,53.0,48.0,-100.00,NNW,332,6.0,10.0,83,0.00,,,0.00,0.000000,,2013-05-29 10:33:00,
2013-05-29 04:42:00,53.0,48.0,-100.00,NNW,332,6.0,10.0,83,0.00,,,0.00,0.000000,,2013-05-29 10:42:00,
2013-05-29 04:53:00,53.0,48.0,-100.00,NNW,332,6.0,10.0,83,0.00,,,0.00,0.000000,,2013-05-29 10:53:00,
2013-05-29 05:02:00,53.0,48.0,-100.00,NNW,332,6.0,10.0,83,0.00,,,0.00,0.000000,,2013-05-29 11:02:00,
2013-05-29 05:12:00,53.0,48.0,-100.00,NNW,332,6.0,10.0,83,0.00,,,0.00,0.000000,,2013-05-29 11:12:00,
2013-05-29 05:32:00,51.0,47.0,-100.00,North,357,4.0,7.0,87,0.00,,,-99.99,0.000000,,2013-05-29 11:32:00,
2013-05-29 05:42:00,51.0,47.0,-100.00,North,357,4.0,7.0,87,0.00,,,-99.99,0.000000,,2013-05-29 11:42:00,
2013-05-29 05:52:00,51.0,47.0,-100.00,North,357,4.0,7.0,87,0.00,,,-99.99,0.000000,,2013-05-29 11:52:00,
2013-05-29 06:01:00,51.0,47.0,-100.00,North,357,4.0,7.0,87,0.00,,,-99.99,0.000000,,2013-05-29 12:01:00,
2013-05-29 06:11:00,51.0,47.0,-100.00,North,357,4.0,7.0,87,0.00,,,-99.99,0.000000,,2013-05-29 12:11:00,
2013-05-29 06:32:00,54.0,48.0,-100.00,WNW,297,4.0,8.0,79,0.00,,,0.00,17.000000,,2013-05-29 12:32:00,
2013-05-29 06:42:00,54.0,48.0,-100.00,WNW,297,4.0,8.0,79,0.00,,,0.00,17.000000,,2013-05-29 12:42:00,
2013-05-29 06:52:00,54.0,48.0,-100.00,WNW,297,4.0,8.0,79,0.00,,,0.00,17.000000,,2013-05-29 12:52:00,
2013-05-29 07:02:00,54.0,48.0,-100.00,WNW,297,4.0,8.0,79,0.00,,,0.00,17.000000,,2013-05-29 13:02:00,
2013-05-29 07:11:00,54.0,48.0,-100.00,WNW,297,4.0,8.0,79,0.00,,,0.00,17.000000,,2013-05-29 13:11:00,
2013-05-29 07:32:00,55.0,47.0,-100.00,NW,312,4.0,7.0,74,0.00,,,0.00,49.000000,,2013-05-29 13:32:00,
2013-05-29 07:42:00,55.0,47.0,-100.00,NW,312,4.0,7.0,74,0.00,,,0.00,49.000000,,2013-05-29 13:42:00,
2013-05-29 07:53:00,55.0,47.0,-100.00,NW,312,4.0,7.0,74,0.00,,,0.00,49.000000,,2013-05-29 13:53:00,
2013-05-29 08:02:00,55.0,47.0,-100.00,NW,312,4.0,7.0,74,0.00,,,0.00,49.000000,,2013-05-29 14:02:00,
2013-05-29 08:11:00,55.0,47.0,-100.00,NW,312,4.0,7.0,74,0.00,,,0.00,49.000000,,2013-05-29 14:11:00,
2013-05-29 08:32:00,55.0,49.0,-100.00,East,88,3.0,10.0,81,0.00,,,0.00,133.000000,,2013-05-29 14:32:00,
2013-05-29 08:42:00,55.0,49.0,-100.00,East,88,3.0,10.0,81,0.00,,,0.00,133.000000,,2013-05-29 14:42:00,
2013-05-29 08:52:00,55.0,49.0,-100.00,East,88,3.0,10.0,81,0.00,,,0.00,133.000000,,2013-05-29 14:52:00,
2013-05-29 09:01:00,55.0,49.0,-100.00,East,88,3.0,10.0,81,0.00,,,0.00,133.000000,,2013-05-29 15:01:00,
2013-05-29 09:11:00,55.0,49.0,-100.00,East,88,3.0,10.0,81,0.00,,,0.00,133.000000,,2013-05-29 15:11:00,
2013-05-29 09:33:00,56.0,52.0,-100.00,ENE,67,4.0,8.0,85,0.00,,,0.00,208.000000,,2013-05-29 15:33:00,
2013-05-29 09:43:00,56.0,52.0,-100.00,ENE,67,4.0,8.0,85,0.00,,,0.00,208.000000,,2013-05-29 15:43:00,
2013-05-29 09:53:00,56.0,52.0,-100.00,ENE,67,4.0,8.0,85,0.00,,,0.00,208.000000,,2013-05-29 15:53:00,
2013-05-29 10:03:00,56.0,52.0,-100.00,ENE,67,4.0,8.0,85,0.00,,,0.00,208.000000,,2013-05-29 16:03:00,
2013-05-29 10:12:00,56.0,52.0,-100.00,ENE,67,4.0,8.0,85,0.00,,,0.00,208.000000,,2013-05-29 16:12:00,
2013-05-29 10:33:00,59.0,51.0,-100.00,North,352,5.0,10.0,75,0.00,,,0.00,386.000000,,2013-05-29 16:33:00,
2013-05-29 10:42:00,59.0,51.0,-100.00,North,352,5.0,10.0,75,0.00,,,0.00,386.000000,,2013-05-29 16:42:00,
2013-05-29 10:52:00,59.0,51.0,-100.00,North,352,5.0,10.0,75,0.00,,,0.00,386.000000,,2013-05-29 16:52:00,
2013-05-29 11:02:00,59.0,51.0,-100.00,North,352,5.0,10.0,75,0.00,,,0.00,386.000000,,2013-05-29 17:02:00,
2013-05-29 11:12:00,59.0,51.0,-100.00,North,352,5.0,10.0,75,0.00,,,0.00,386.000000,,2013-05-29 17:12:00,
2013-05-29 11:13:00,62.0,50.0,-100.00,NE,45,5.0,10.0,65,0.00,,,0.00,603.000000,,2013-05-29 17:13:00,
2013-05-29 11:32:00,62.0,50.0,-100.00,NE,45,5.0,10.0,65,0.00,,,0.00,603.000000,,2013-05-29 17:32:00,
2013-05-29 11:43:00,62.0,50.0,-100.00,NE,45,5.0,10.0,65,0.00,,,0.00,603.000000,,2013-05-29 17:43:00,
2013-05-29 11:52:00,62.0,50.0,-100.00,NE,45,5.0,10.0,65,0.00,,,0.00,603.000000,,2013-05-29 17:52:00,
2013-05-29 12:01:00,62.0,50.0,-100.00,NE,45,5.0,10.0,65,0.00,,,0.00,603.000000,,2013-05-29 18:01:00,
2013-05-29 12:32:00,64.0,52.0,-100.00,East,87,6.0,12.0,64,0.00,,,0.00,665.000000,,2013-05-29 18:32:00,
2013-05-29 12:42:00,64.0,52.0,-100.00,East,87,6.0,12.0,64,0.00,,,0.00,665.000000,,2013-05-29 18:42:00,
2013-05-29 12:52:00,64.0,52.0,-100.00,East,87,6.0,12.0,64,0.00,,,0.00,665.000000,,2013-05-29 18:52:00,
2013-05-29 13:02:00,64.0,52.0,-100.00,East,87,6.0,12.0,64,0.00,,,0.00,665.000000,,2013-05-29 19:02:00,
2013-05-29 13:11:00,64.0,52.0,-100.00,East,87,6.0,12.0,64,0.00,,,0.00,665.000000,,2013-05-29 19:11:00,
2013-05-29 13:32:00,66.0,54.0,-100.00,East,90,7.0,12.0,66,0.00,,,0.00,739.000000,,2013-05-29 19:32:00,
2013-05-29 13:44:00,66.0,54.0,-100.00,East,90,7.0,12.0,66,0.00,,,0.00,739.000000,,2013-05-29 19:44:00,
2013-05-29 13:53:00,66.0,54.0,-100.00,East,90,7.0,12.0,66,0.00,,,0.00,739.000000,,2013-05-29 19:53:00,
2013-05-29 14:03:00,66.0,54.0,-100.00,East,90,7.0,12.0,66,0.00,,,0.00,739.000000,,2013-05-29 20:03:00,
2013-05-29 14:11:00,66.0,54.0,-100.00,East,90,7.0,12.0,66,0.00,,,0.00,739.000000,,2013-05-29 20:11:00,
2013-05-29 14:33:00,67.0,53.0,-100.00,East,91,7.0,14.0,61,0.00,,,0.00,679.000000,,2013-05-29 20:33:00,
2013-05-29 14:42:00,67.0,53.0,-100.00,East,91,7.0,14.0,61,0.00,,,0.00,679.000000,,2013-05-29 20:42:00,
2013-05-29 14:53:00,67.0,53.0,-100.00,East,91,7.0,14.0,61,0.00,,,0.00,679.000000,,2013-05-29 20:53:00,
2013-05-29 15:02:00,67.0,53.0,-100.00,East,91,7.0,14.0,61,0.00,,,0.00,679.000000,,2013-05-29 21:02:00,
2013-05-29 15:12:00,67.0,53.0,-100.00,East,91,7.0,14.0,61,0.00,,,0.00,679.000000,,2013-05-29 21:12:00,
2013-05-29 15:33:00,68.0,49.0,-100.00,East,97,9.0,14.0,51,0.00,,,0.00,916.000000,,2013-05-29 21:33:00,
2013-05-29 15:44:00,68.0,49.0,-100.00,East,97,9.0,14.0,51,0.00,,,0.00,916.000000,,2013-05-29 21:44:00,
2013-05-29 15:53:00,68.0,49.0,-100.00,East,97,9.0,14.0,51,0.00,,,0.00,916.000000,,2013-05-29 21:53:00,
2013-05-29 16:03:00,68.0,49.0,-100.00,East,97,9.0,14.0,51,0.00,,,0.00,916.000000,,2013-05-29 22:03:00,
2013-05-29 16:12:00,68.0,49.0,-100.00,East,97,9.0,14.0,51,0.00,,,0.00,916.000000,,2013-05-29 22:12:00,
2013-05-29 16:34:00,61.0,49.0,-100.00,WSW,245,9.0,14.0,65,0.00,,,0.00,314.000000,,2013-05-29 22:34:00,
2013-05-29 16:42:00,61.0,49.0,-100.00,WSW,245,9.0,14.0,65,0.00,,,0.00,314.000000,,2013-05-29 22:42:00,
2013-05-29 16:53:00,61.0,49.0,-100.00,WSW,245,9.0,14.0,65,0.00,,,0.00,314.000000,,2013-05-29 22:53:00,
2013-05-29 17:02:00,61.0,49.0,-100.00,WSW,245,9.0,14.0,65,0.00,,,0.00,314.000000,,2013-05-29 23:02:00,
2013-05-29 17:12:00,61.0,49.0,-100.00,WSW,245,9.0,14.0,65,0.00,,,0.00,314.000000,,2013-05-29 23:12:00,
2013-05-29 17:33:00,62.0,50.0,-100.00,WSW,244,8.0,19.0,65,0.00,,,0.00,546.000000,,2013-05-29 23:33:00,
2013-05-29 17:42:00,62.0,50.0,-100.00,WSW,244,8.0,19.0,65,0.00,,,0.00,546.000000,,2013-05-29 23:42:00,
2013-05-29 17:53:00,62.0,50.0,-100.00,WSW,244,8.0,19.0,65,0.00,,,0.00,546.000000,,2013-05-29 23:53:00,
2013-05-29 18:01:00,62.0,50.0,-100.00,WSW,244,8.0,19.0,65,0.00,,,0.00,546.000000,,2013-05-30 00:01:00,
2013-05-29 18:11:00,62.0,50.0,-100.00,WSW,244,8.0,19.0,65,0.00,,,0.00,546.000000,,2013-05-30 00:11:00,
2013-05-29 19:32:00,58.0,49.0,-100.00,WNW,282,9.0,20.0,72,-99.99,,,0.01,183.000000,,2013-05-30 01:32:00,
2013-05-29 19:42:00,58.0,49.0,-100.00,WNW,282,9.0,20.0,72,-99.99,,,0.01,183.000000,,2013-05-30 01:42:00,
2013-05-29 19:52:00,58.0,49.0,-100.00,WNW,282,9.0,20.0,72,-99.99,,,0.01,183.000000,,2013-05-30 01:52:00,
2013-05-29 20:01:00,58.0,49.0,-100.00,WNW,282,9.0,20.0,72,-99.99,,,0.01,183.000000,,2013-05-30 02:01:00,
2013-05-29 20:11:00,58.0,49.0,-100.00,WNW,282,9.0,20.0,72,-99.99,,,0.01,183.000000,,2013-05-30 02:11:00,
2013-05-29 20:32:00,57.0,49.0,-100.00,West,276,9.0,16.0,74,0.00,,,0.01,46.000000,,2013-05-30 02:32:00,
2013-05-29 20:42:00,57.0,49.0,-100.00,West,276,9.0,16.0,74,0.00,,,0.01,46.000000,,2013-05-30 02:42:00,
2013-05-29 20:52:00,57.0,49.0,-100.00,West,276,9.0,16.0,74,0.00,,,0.01,46.000000,,2013-05-30 02:52:00,
2013-05-29 21:02:00,57.0,49.0,-100.00,West,276,9.0,16.0,74,0.00,,,0.01,46.000000,,2013-05-30 03:02:00,
2013-05-29 21:11:00,57.0,49.0,-100.00,West,276,9.0,16.0,74,0.00,,,0.01,46.000000,,2013-05-30 03:11:00,
2013-05-29 21:33:00,57.0,49.0,-100.00,West,281,7.0,15.0,75,0.00,,,0.01,1.000000,,2013-05-30 03:33:00,
2013-05-29 21:43:00,57.0,49.0,-100.00,West,281,7.0,15.0,75,0.00,,,0.01,1.000000,,2013-05-30 03:43:00,
2013-05-29 21:53:00,57.0,49.0,-100.00,West,281,7.0,15.0,75,0.00,,,0.01,1.000000,,2013-05-30 03:53:00,
2013-05-29 22:03:00,57.0,49.0,-100.00,West,281,7.0,15.0,75,0.00,,,0.01,1.000000,,2013-05-30 04:03:00,
2013-05-29 22:12:00,57.0,49.0,-100.00,West,281,7.0,15.0,75,0.00,,,0.01,1.000000,,2013-05-30 04:12:00,
2013-05-29 22:33:00,54.0,51.0,-100.00,South,170,5.0,11.0,89,0.03,,,0.04,0.000000,,2013-05-30 04:33:00,
2013-05-29 22:42:00,54.0,51.0,-100.00,South,170,5.0,11.0,89,0.03,,,0.04,0.000000,,2013-05-30 04:42:00,
2013-05-29 22:53:00,54.0,51.0,-100.00,South,170,5.0,11.0,89,0.03,,,0.04,0.000000,,2013-05-30 04:53:00,
2013-05-29 23:02:00,54.0,51.0,-100.00,South,170,5.0,11.0,89,0.03,,,0.04,0.000000,,2013-05-30 05:02:00,
2013-05-29 23:12:00,54.0,51.0,-100.00,South,170,5.0,11.0,89,0.03,,,0.04,0.000000,,2013-05-30 05:12:00,
2013-05-29 23:32:00,53.0,52.0,-100.00,North,359,2.0,5.0,96,0.01,,,0.05,0.000000,,2013-05-30 05:32:00,
2013-05-29 23:43:00,53.0,52.0,-100.00,North,359,2.0,5.0,96,0.01,,,0.05,0.000000,,2013-05-30 05:43:00,
2013-05-29 23:52:00,53.0,52.0,-100.00,North,359,2.0,5.0,96,0.01,,,0.05,0.000000,,2013-05-30 05:52:00,